SCP
0 0 0 0 0 0 0 0 0 0 0 0 0 0 0 0 0 0 0 0 0 0
0 0 0 0 0 0 0 0 0 0 0 0 0 0 0 0 0 0 0 0 0 0
0 0 0 0 0 0 0 0 0 0 0 0 0 0 0 0 0 0 0 0 0 0
0 0 0 0 0 0 0 0 0 0 0 0 0 0 0 0 0 0 0 0 0 0
0 0 0 0 0 0 0 0 0 0 0 0 0 0 0 0 0 0 0 0 0 0
0 0 0 0 0 0 0 0 0 0 0 0 0 0 0 0 0 0 0 0 0 0
0 0 0 0 0 0 0 0 0 0 0 0 0 0 0 0 0 0 0 0 0 0
0 0 0 0 0 0 0 0 0 0 0 0 0 0 0 0 0 0 0 0 0 0
0 0 0 0 0 0 0 0 0 0 0 0 0 0 0 0 0 0 0 0 0 0
0 0 0 0 0 0 0 0 0 0 0 0 0 0 0 0 0 0 0 0 0 0
0 0 0 0 0 0 0 0 0 0 0 0 0 0 0 0 0 0 0 0 0 0
0 0 0 0 0 0 0 0 0 0 0 0 0 0 0 0 0 0 0 0 0 0
0 0 0 0 0 0 0 0 0 0 0 0 0 0 0 0 0 0 0 0 0 0
0 0 0 0 0 0 0 0 0 0 0 0 0 0 0 0 0 0 0 0 0 0
Wind_Speed_500mb
81 81 78 77 73 67 58 59 46 38 42 45 46 41 38 33 28 23 19 17 17 17
85 82 80 79 78 72 64 58 52 43 46 50 47 42 37 33 28 24 20 18 17 16
83 82 80 79 80 77 70 63 57 52 52 50 45 42 38 33 28 25 20 19 17 14
77 79 78 78 77 75 76 70 64 54 49 47 46 44 38 33 29 26 21 20 17 13
77 78 76 76 73 75 77 78 61 52 50 49 49 45 39 34 30 25 22 21 17 12
78 79 78 74 73 76 74 71 58 54 54 54 52 47 42 36 31 26 25 22 17 11
72 72 73 68 75 89 85 69 59 60 58 58 53 48 42 36 32 30 26 23 17 12
63 63 64 68 78 74 84 70 57 65 66 60 54 49 42 38 35 31 27 23 19 16
57 57 59 68 75 83 77 63 66 67 62 59 54 48 43 40 36 31 28 24 23 20
52 57 60 67 75 79 79 67 69 67 63 58 53 48 45 42 37 32 29 27 25 24
56 60 64 74 83 79 69 68 71 69 64 59 53 49 47 43 38 33 31 28 28 28
60 68 69 75 80 75 73 72 72 67 63 59 56 52 50 43 38 34 32 29 32 30
64 69 72 75 77 76 73 76 74 69 64 60 56 53 48 43 39 37 32 32 36 34
64 69 73 77 79 80 80 79 75 71 67 63 59 55 49 43 39 34 31 35 39 38
Wind_Direction_500mb
237 239 240 237 240 240 241 245 241 251 253 249 249 245 241 232 233 244 253 268 286 296
239 238 238 235 236 238 241 240 234 247 252 247 248 238 225 225 232 239 251 268 282 294
239 237 237 236 235 234 233 233 232 245 256 246 230 221 220 226 232 242 252 265 274 291
238 240 239 237 235 234 230 230 227 237 252 228 221 218 221 226 232 241 251 260 270 284
238 241 239 239 234 233 227 228 227 232 238 221 216 219 221 225 232 241 250 256 262 276
238 240 240 235 231 234 222 215 222 236 225 214 214 219 222 224 230 237 245 250 250 258
241 239 238 232 225 226 219 215 223 227 217 211 215 217 220 226 229 233 237 241 244 245
241 235 228 222 223 214 222 212 228 219 209 211 214 217 221 225 228 231 233 236 236 236
232 228 222 216 212 225 208 213 219 212 210 213 216 217 222 224 228 230 232 234 233 239
225 221 218 219 211 217 210 214 211 210 211 214 216 219 223 226 227 229 231 233 238 239
221 221 218 219 213 210 212 215 210 213 213 216 218 221 224 227 226 229 232 234 242 242
223 219 219 220 213 214 217 215 212 216 217 218 221 221 223 224 227 232 234 239 244 246
229 223 223 222 221 220 218 216 215 217 218 220 223 223 223 222 226 231 237 244 248 248
235 230 225 225 223 222 217 216 218 219 220 221 223 222 223 222 227 232 242 250 253 252
Wind_Speed_850mb
81 81 78 77 73 67 58 59 46 38 42 45 46 41 38 33 28 23 19 17 17 17
85 82 80 79 78 72 64 58 52 43 46 50 47 42 37 33 28 24 20 18 17 16
83 82 80 79 80 77 70 63 57 52 52 50 45 42 38 33 28 25 20 19 17 14
77 79 78 78 77 75 76 70 64 54 49 47 46 44 38 33 29 26 21 20 17 13
77 78 76 76 73 75 77 78 61 52 50 49 49 45 39 34 30 25 22 21 17 12
78 79 78 74 73 76 74 71 58 54 54 54 52 47 42 36 31 26 25 22 17 11
72 72 73 68 75 89 85 69 59 60 58 58 53 48 42 36 32 30 26 23 17 12
63 63 64 68 78 74 84 70 57 65 66 60 54 49 42 38 35 31 27 23 19 16
57 57 59 68 75 83 77 63 66 67 62 59 54 48 43 40 36 31 28 24 23 20
52 57 60 67 75 79 79 67 69 67 63 58 53 48 45 42 37 32 29 27 25 24
56 60 64 74 83 79 69 68 71 69 64 59 53 49 47 43 38 33 31 28 28 28
60 68 69 75 80 75 73 72 72 67 63 59 56 52 50 43 38 34 32 29 32 30
64 69 72 75 77 76 73 76 74 69 64 60 56 53 48 43 39 37 32 32 36 34
64 69 73 77 79 80 80 79 75 71 67 63 59 55 49 43 39 34 31 35 39 38
Wind_Direction_850mb
237 239 240 237 240 240 241 245 241 251 253 249 249 245 241 232 233 244 253 268 286 296
239 238 238 235 236 238 241 240 234 247 252 247 248 238 225 225 232 239 251 268 282 294
239 237 237 236 235 234 233 233 232 245 256 246 230 221 220 226 232 242 252 265 274 291
238 240 239 237 235 234 230 230 227 237 252 228 221 218 221 226 232 241 251 260 270 284
238 241 239 239 234 233 227 228 227 232 238 221 216 219 221 225 232 241 250 256 262 276
238 240 240 235 231 234 222 215 222 236 225 214 214 219 222 224 230 237 245 250 250 258
241 239 238 232 225 226 219 215 223 227 217 211 215 217 220 226 229 233 237 241 244 245
241 235 228 222 223 214 222 212 228 219 209 211 214 217 221 225 228 231 233 236 236 236
232 228 222 216 212 225 208 213 219 212 210 213 216 217 222 224 228 230 232 234 233 239
225 221 218 219 211 217 210 214 211 210 211 214 216 219 223 226 227 229 231 233 238 239
221 221 218 219 213 210 212 215 210 213 213 216 218 221 224 227 226 229 232 234 242 242
223 219 219 220 213 214 217 215 212 216 217 218 221 221 223 224 227 232 234 239 244 246
229 223 223 222 221 220 218 216 215 217 218 220 223 223 223 222 226 231 237 244 248 248
235 230 225 225 223 222 217 216 218 219 220 221 223 222 223 222 227 232 242 250 253 252